星链-37736(STARLINK-37736)

导读

STARLINK-37736(NORAD编号69226)是美国SpaceX公司星链(Starlink)星座的一员,属于低轨互联网通信卫星。星链项目旨在构建全球覆盖的太空互联网系统,为全球提供低成本、高带宽的网络服务。该卫星运行于近地轨道,通过星间链路与地面基站配合,实现全球范围的通信覆盖,尤其可提升偏远地区、高纬度区域的网络接入能力。作为星链大规模组网部署的组成部分,它和其他数千颗星链卫星共同推进低轨卫星互联网的商业化运营,支撑起全球卫星通信网络的规模扩展,也体现了SpaceX可重复火箭技术下星座部署的工业化能力。

Basic Information
目录编号:
69226
目录名称:
STARLINK-37736
国际标识:
2026-115R
轨道中心:
EARTH
卫星名称:
星链-37736
卫星全名:
星链-37736(STARLINK-37736)
卫星状态:
在轨 (已飞行101 天)
发射日期:
2026-05-26 UTC
国别 :
美国 (US)
星等 :
--
Orbit Information
数据来源 国际轨道数据
星历时间: 2026-09-03T19:29:46+0800
18小时前
查看轨道信息
半长轴: 6843.679km
偏心率: 0.0001397
轨道倾角: 97.283°
近地点辐角 104.223°
升交点赤经 262.846°
平近点角 255.917°
近地点: 464.585km
远地点: 466.499km
周期: 93.906分钟
每日圈数: 15.334456
Detailed Information
固有亮度:
5
最大亮度:
2.5
卫星平台:
Starlink V1.0
覆盖范围:
全球
运营商:
太空探索技术公司
运营商所在国:
美国
制造商(研发单位):
太空探索技术公司
制造商所在国:
美国
使用方式:
暂无
Satellite Introduction
Starlink 计划是 SpaceX 推出的全球卫星互联网项目,通过发射低轨道卫星,为全球尤其是偏远地区提供高速、低延迟的互联网服务。自 2019 年起,Starlink 已部署数千颗卫星,旨在缩小全球数字鸿沟,推动互联网普及。该项目还为军事、航空等行业提供通信支持,带来广泛经济效益。
2D Orbit Map
3D Orbit Map
Orbit Altitude Analysis Chart
Orbit Inclination Analysis Chart
Orbit Comprehensive Analysis Chart
View Comprehensive Chart
Conjunction Data List
Event ID Objects TCA Miss Dist (km) Collision Risk Probability Collision Risk Index (CRI) Action
CDM_260903-040205-850206-922622
OBJECT A (58502)
2026-09-03T
04:02:20+0000
0.526 km
远距离
2.737819E-5 中风险 0.64
CDM_260904-155406-430806-922621
2026-09-04T
15:54:56+0000
2.149 km
极远距离
2.416405E-6 低风险 0.43
CDM_260829-211305-082306-922621
2026-08-29T
21:13:42+0000
2.300 km
极远距离
2.036913E-6 低风险 0.41
CDM_260905-005106-349806-922621
2026-09-05T
00:51:24+0000
2.853 km
极远距离
1.33412E-6 低风险 0.38